SCP
0 0 0 0 0 0 0 -0 -0 0 0 0 0 0 0 0 0 0 0 0 0 0 0 0 0 0 0 0 0 0 0 0 0 0 0 0 0 0 0 0 -0 -0 -0
0 0 0 0 0 0 0 0 0 0 0 0 0 0 0 0 0 0 0 0 0 0 0 0 0 0 0 0 0 0 0 0 0 0 0 0 0 0 0 0 0 0 -0
0 0 0 0 0 0 0 0 0 0 0 0 0 0 0 0 0 0 0 0 0 0 0 0 0 0 0 0 0 0 0 0 0 0 0 0 0 0 0 0 0 0 0
0 0 0 0 0 0 0 0 0 0 0 0 0 0 0 0 0 0 0 0 0 0 0 0 0 0 0 0 0 0 0 0 0 0 0 0 0 0 0 0 0 0 0
0 0 0 0 0 0 0 0 0 0 0 0 0 0 0 0 0 0 0 0 0 0 0 0 0 0 0 0 0 0 0 0 0 0 0 0 0 0 0 0 0 0 0
0 0 0 0 0 0 0 0 0 0 0 0 0 0 0 0 0 0 0 0 0 0 0 0 0 0 0 0 0 0 0 0 0 0 0 0 0 0 0 0 0 0 0
0 0 0 0 0 0 0 0 0 0 0 0 0 0 0 0 0 0 0 0 0 0 0 0 0 0 0 0 0 0 0 0 0 0 0 0 0 0 0 0 0 0 0
0 0 0 0 0 0 0 0 0 0 0 0 0 0 0 0 0 0 0 0 0 0 0 0 0 0 0 0 0 0 0 0 0 0 0 0 0 0 0 0 0 0 0
0 0 0 0 0 0 0 0 0 0 0 0 0 0 0 0 0 0 0 0 0 0 0 0 -0 -0 0 0 0 0 0 0 0 0 0 0 0 0 0 0 0 0 0
0 0 0 0 0 0 0 0 0 0 0 0 0 0 0 0 0 0 0 0 0 0 0 0 -0 -0 0 0 0 0 0 0 0 0 0 0 0 0 0 0 0 0 0
0 0 0 0 0 0 0 0 0 0 0 0 0 0 0 0 0 0 0 0 0 0 0 0 0 0 0 0 0 0 -0 -0 0 0 0 0 0 0 0 0 0 0 0
0 0 0 0 0 0 0 0 0 0 0 0 0 0 0 0 0 0 0 0 0 0 0 0 0 0 0 0 0 0 -0 0 0 0 0 0 0 0 0 0 0 0 0
0 0 0 0 0 0 0 0 0 0 0 0 0 0 0 0 0 0 0 0 0 0 0 0 0 0 0 0 0 0 0 0 0 0 0 0 0 0 0 0 0 0 0
0 0 0 0 0 0 0 1 1 0 0 0 0 0 0 0 0 0 0 0 0 0 0 0 0 0 0 0 0 0 0 0 0 0 0 0 0 0 0 0 0 0 0
0 0 0 0 0 1 1 1 1 0 0 0 0 0 0 0 0 0 0 0 0 0 0 0 0 0 0 0 0 0 0 0 0 0 0 0 0 0 0 0 0 0 0
0 0 0 0 0 1 1 1 1 1 0 0 0 0 0 0 0 0 0 0 0 0 0 0 0 0 0 0 0 0 0 0 0 0 0 0 0 0 0 0 0 0 0
0 0 0 0 0 0 1 1 1 1 0 0 0 0 0 0 0 0 0 0 0 0 0 0 0 0 0 0 0 0 0 0 0 0 0 0 0 0 0 0 0 0 0
0 0 0 0 0 0 1 1 1 1 1 1 0 0 0 0 0 0 0 0 0 0 0 0 0 0 0 0 0 0 0 0 0 0 0 0 0 0 0 0 0 0 0
1 0 0 0 0 1 1 1 1 1 1 1 1 1 0 0 0 1 0 0 0 0 0 0 0 0 0 0 0 0 0 0 0 0 0 0 0 0 0 0 0 0 0
1 1 1 1 1 1 1 2 2 2 1 1 1 1 1 1 1 1 1 0 0 0 0 0 0 0 0 0 0 0 0 0 0 0 0 0 0 0 0 0 0 0 0
1 1 1 1 1 2 2 3 3 3 2 2 2 1 1 1 1 1 1 1 1 1 0 0 0 0 0 0 0 0 0 0 0 0 0 0 0 0 0 0 0 0 0
2 2 2 2 2 2 3 4 4 4 3 3 2 2 1 1 1 1 1 1 1 1 1 0 0 0 0 0 0 0 0 0 0 0 0 0 0 0 0 0 0 0 0
1 2 2 2 2 2 3 4 4 4 4 3 3 2 1 1 1 1 1 1 1 1 0 0 0 0 0 0 0 0 0 0 0 0 0 0 0 0 0 0 0 0 0
1 1 1 1 2 2 3 4 4 4 4 3 2 2 2 1 1 1 1 1 0 0 0 0 0 0 0 0 0 0 0 0 0 0 0 0 0 0 0 0 0 0 0
0 0 0 1 1 1 2 2 3 3 2 2 2 1 1 1 1 1 1 1 0 0 0 0 0 0 0 0 0 0 0 0 0 0 0 0 0 0 0 0 0 0 0
0 0 0 0 0 1 1 2 2 2 1 1 1 1 1 1 1 1 1 0 0 0 0 0 0 0 0 0 0 0 0 0 0 0 0 0 0 0 0 0 0 0 0
Wind_Speed
12 14 15 14 13 12 11 11 11 11 11 11 10 10 10 10 10 9 9 9 9 8 8 7 6 5 5 5 5 5 6 6 6 5 5 5 6 7 7 7 6 4 7
16 16 15 15 14 12 11 11 11 10 10 10 10 10 10 10 9 9 9 9 8 8 8 7 6 5 5 5 5 5 6 6 5 4 3 4 6 7 7 9 9 6 7
18 16 14 15 14 13 11 10 10 9 10 10 10 10 10 10 9 9 8 8 8 8 8 7 6 5 5 5 6 6 6 5 3 2 1 2 4 7 8 8 9 9 8
18 15 14 15 14 13 11 10 9 9 9 10 10 10 10 9 9 9 8 8 8 8 8 7 6 5 5 5 6 6 5 3 1 2 2 3 4 7 8 8 8 9 8
16 14 15 15 14 12 11 10 10 9 9 9 10 10 9 9 9 9 9 9 9 9 8 7 6 6 5 5 5 5 4 2 2 2 4 5 5 5 7 7 7 7 7
15 15 15 15 14 12 11 10 10 10 9 10 9 9 9 9 9 9 10 9 9 9 8 7 6 6 6 6 5 4 3 0 3 2 5 5 4 4 5 5 5 6 6
15 15 15 14 13 12 11 10 10 10 10 10 9 9 8 8 9 9 10 10 9 8 8 7 7 7 7 7 6 4 2 1 2 2 4 5 4 4 5 4 4 4 4
16 16 14 14 13 12 11 10 10 10 10 10 9 9 8 8 9 10 10 10 9 8 7 6 6 7 8 7 6 4 1 4 2 3 5 5 5 5 4 4 3 3 3
15 16 13 12 11 11 10 10 10 10 11 10 10 9 9 8 9 10 10 10 9 8 6 6 6 6 7 7 5 2 1 4 2 1 7 5 6 5 4 4 4 3 3
12 15 15 14 12 11 9 11 11 11 11 11 10 10 9 9 9 10 11 10 9 7 6 5 4 5 6 6 3 2 3 5 3 2 6 6 7 6 5 4 4 3 3
9 11 13 13 12 11 11 12 11 10 10 10 9 10 9 6 7 7 10 11 8 7 6 5 4 4 5 5 6 6 5 4 3 4 5 8 7 5 4 3 3 3 3
8 8 8 10 10 9 7 9 7 7 7 7 6 8 6 5 5 7 12 11 9 7 6 6 6 6 6 4 6 7 4 5 2 5 5 8 6 4 2 2 2 2 2
9 8 9 9 9 8 5 7 4 4 5 6 6 8 6 5 4 7 5 6 5 7 5 5 6 5 7 5 5 5 1 2 3 6 5 7 4 2 1 1 1 1 1
10 10 9 10 9 8 7 6 5 4 4 4 6 9 7 4 5 7 6 7 6 4 5 5 5 8 6 5 3 2 4 1 3 4 5 6 3 2 1 2 2 2 1
10 10 10 10 10 9 7 5 7 6 6 7 6 7 7 4 4 4 5 6 6 5 4 4 5 4 1 3 2 4 4 3 4 5 4 5 4 3 1 1 2 2 1
10 10 9 10 10 10 9 7 5 6 5 5 5 6 7 5 3 3 3 5 4 4 5 4 3 3 2 2 2 3 3 3 3 5 5 5 4 3 2 2 3 3 2
6 8 9 9 9 10 11 9 6 5 7 5 5 6 6 5 4 4 3 4 3 3 4 3 1 2 3 3 2 0 2 2 3 2 5 5 4 4 3 4 3 3 3
2 3 8 9 8 8 8 8 6 6 6 5 5 4 5 6 5 4 2 3 3 3 2 2 1 1 2 1 2 2 2 3 3 0 2 5 5 5 4 5 4 4 4
7 4 5 8 8 7 7 6 6 5 6 5 4 3 3 4 5 4 3 2 3 2 2 3 1 1 1 1 1 1 1 2 2 2 3 5 5 6 5 5 6 5 5
7 7 5 6 8 8 6 6 4 4 5 5 4 4 4 2 4 4 3 2 1 2 1 1 2 1 2 1 2 1 2 2 2 2 2 1 2 6 7 7 4 4 6
10 9 8 5 7 7 6 6 6 5 4 4 4 5 4 3 3 5 3 2 1 2 2 1 1 1 1 1 2 3 2 3 3 3 2 2 2 5 6 7 5 5 4
14 14 13 10 5 7 6 8 7 7 5 5 4 4 5 4 3 4 4 3 2 2 1 1 1 1 1 1 1 1 2 3 3 2 3 2 2 2 2 4 7 6 6
13 14 13 14 11 5 6 6 6 6 5 5 5 4 4 4 3 3 3 4 3 3 3 3 3 4 3 3 3 3 3 3 2 3 4 4 3 1 2 1 3 5 7
12 13 14 14 15 10 3 5 8 7 7 6 5 4 4 3 3 3 2 3 2 2 3 4 5 4 5 4 4 3 3 3 2 2 3 2 4 4 2 1 1 1 4
12 12 12 12 12 12 8 2 4 5 5 4 5 6 4 3 3 3 2 2 1 2 3 4 5 4 4 4 4 3 2 2 3 3 2 3 2 1 2 1 2 0 2
11 10 10 10 11 11 10 8 6 7 7 7 7 6 3 3 2 3 2 1 1 1 2 3 4 4 3 4 3 3 3 2 2 2 3 3 3 2 2 2 2 1 1
Wind_Direction
128 131 141 136 131 124 118 114 111 112 112 111 109 107 103 100 96 96 95 94 93 93 93 95 99 105 113 112 105 100 99 98 91 85 77 70 64 54 44 34 23 78 77
128 131 142 138 134 129 123 119 117 117 117 116 114 110 107 104 102 100 99 99 98 96 94 93 94 100 113 123 125 120 113 106 101 98 88 80 75 64 55 51 54 68 67
125 132 141 140 138 134 130 126 123 123 123 120 117 114 111 109 108 105 104 103 102 100 97 95 96 101 114 128 133 129 118 112 113 95 75 79 90 76 67 63 65 68 66
128 139 142 143 141 139 138 137 134 132 129 126 122 119 116 114 112 109 103 101 103 103 100 96 96 102 114 124 129 125 115 102 67 11 59 73 78 81 73 67 69 71 67
133 139 135 147 145 146 148 147 144 140 136 133 128 125 121 119 116 111 103 99 98 97 95 92 92 98 111 124 128 127 119 93 351 352 70 83 75 76 74 70 71 73 72
133 130 139 150 152 155 157 156 153 148 145 140 136 132 128 126 121 115 108 100 95 92 88 84 85 92 103 116 123 124 125 60 318 33 67 87 90 81 82 79 78 78 77
135 132 144 152 156 160 162 161 160 157 154 149 146 142 139 135 129 123 116 108 99 91 84 78 79 87 94 102 110 117 127 319 292 76 87 93 104 100 86 83 83 83 85
137 137 143 153 158 162 165 167 167 165 160 158 156 150 147 144 137 132 126 118 107 97 87 78 78 88 96 99 103 107 99 296 207 140 108 98 95 87 78 72 71 83 93
139 139 146 158 162 166 170 174 175 171 166 164 160 156 153 148 143 140 133 126 119 111 100 87 83 95 104 106 104 107 284 300 306 151 114 94 82 71 69 65 59 71 90
147 148 157 163 167 170 172 178 179 177 172 168 164 161 156 153 152 151 147 137 132 126 117 107 103 112 123 131 148 220 274 306 276 127 104 100 84 69 62 60 59 66 84
159 156 160 164 168 172 171 172 175 180 177 170 169 169 165 174 171 172 159 147 147 144 142 142 152 162 164 175 199 224 252 253 205 99 96 105 95 81 69 64 61 65 76
167 162 155 157 160 166 170 154 173 177 173 184 176 174 192 205 187 163 143 156 160 164 169 183 199 209 207 203 217 220 244 243 193 101 94 100 99 99 97 84 67 61 67
173 167 162 163 164 162 156 155 169 165 166 192 182 183 200 203 166 136 156 154 171 183 194 193 211 225 217 206 202 195 183 350 62 93 102 98 101 120 163 160 130 93 85
173 172 174 169 171 170 164 156 155 164 171 180 192 198 197 194 188 166 170 171 180 195 202 187 215 221 218 182 213 171 137 82 82 99 112 111 116 135 197 203 182 158 156
168 174 181 176 177 174 158 159 167 168 174 188 196 207 192 182 197 176 169 166 184 185 175 231 234 192 127 66 33 36 59 85 103 107 126 136 136 130 138 204 184 169 163
167 177 175 177 176 167 158 176 172 170 171 186 189 211 190 175 190 157 175 156 190 167 168 222 235 125 130 92 48 49 19 35 88 129 137 145 147 140 135 138 157 163 171
170 175 168 173 177 173 171 179 167 170 172 184 189 213 186 172 174 163 188 155 193 176 176 215 183 122 124 124 153 146 94 44 331 117 138 152 150 133 126 122 128 136 140
330 194 173 173 178 175 163 166 162 178 171 174 178 203 189 169 177 169 169 154 177 165 160 119 45 99 125 166 177 185 166 153 251 52 191 155 150 142 123 114 116 120 122
327 294 186 175 178 176 162 162 162 174 158 157 163 178 187 170 174 146 131 124 152 132 139 149 180 166 133 147 139 147 277 188 192 249 253 149 146 146 137 131 126 124 125
317 303 271 191 179 179 164 166 160 156 153 154 159 168 177 159 141 119 120 121 112 113 99 102 131 96 54 28 303 247 223 248 228 244 325 64 171 153 147 150 147 135 132
338 320 300 249 196 184 169 168 163 162 157 153 156 159 154 138 121 120 128 143 120 126 145 186 112 106 53 343 319 321 313 267 256 200 199 271 254 138 159 165 164 154 145
355 347 336 324 274 212 184 177 173 165 161 149 143 141 143 150 153 147 156 153 143 131 164 218 150 151 208 236 214 235 315 320 302 262 192 193 284 165 208 177 167 163 161
358 351 342 336 325 286 208 182 170 154 148 140 146 145 152 160 161 148 151 155 175 174 190 214 212 197 207 231 227 183 185 228 274 297 233 192 218 220 213 251 183 172 152
1 354 349 348 345 334 284 196 174 158 155 151 143 134 128 125 132 137 139 144 164 180 197 216 219 211 205 222 241 228 211 189 174 288 313 247 202 197 205 232 46 57 130
7 2 357 360 2 2 5 33 142 131 119 111 114 117 107 89 88 102 101 115 146 185 213 221 227 211 201 210 227 229 238 243 217 192 255 297 294 191 182 207 162 218 140
12 10 7 14 19 23 29 39 70 103 112 115 113 112 102 91 76 77 94 101 124 209 238 240 230 212 204 216 228 219 205 208 215 194 210 240 259 259 205 188 177 190 173